Wind_Speed
33 33 32 31 30 28 27 26 25 24 22 21 20 19 19 18 17 16 16 15 15 15 14 14 14 14 13 13 13 13 13 12 12 13 13 13 13 13 13 13 13 13 14
35 35 34 32 31 30 28 27 26 26 24 23 22 21 20 20 19 18 17 17 16 16 16 16 15 15 15 14 14 14 14 14 13 14 13 13 14 14 14 14 14 14 14
36 36 36 35 33 32 30 29 28 27 26 25 24 23 22 21 20 20 19 18 18 17 17 17 17 17 16 16 15 15 15 15 15 15 15 15 15 15 15 15 15 15 15
37 37 36 36 35 34 32 31 29 28 27 26 25 24 23 23 22 21 20 20 19 19 18 18 18 18 18 17 17 17 16 16 16 16 16 16 16 16 16 16 16 16 16
38 38 37 37 36 36 34 33 31 31 29 27 26 25 25 24 24 23 22 21 21 20 20 20 20 20 20 19 18 18 18 18 17 17 17 18 17 17 16 16 17 17 17
40 40 39 38 38 37 36 34 33 32 31 30 28 28 27 26 25 24 24 23 22 22 21 21 21 20 20 20 20 19 19 19 19 18 18 18 18 18 18 18 18 18 19
42 42 41 40 39 38 37 36 35 33 33 32 31 30 29 28 27 27 26 25 24 23 23 23 22 22 22 22 21 21 21 20 20 20 20 20 20 20 19 19 20 20 21
44 44 43 42 41 40 39 38 37 36 35 33 32 32 31 30 30 29 28 27 26 26 25 25 24 24 24 24 24 23 23 23 22 22 22 22 21 21 21 21 22 22 23
46 45 45 44 43 42 41 40 39 38 37 36 34 33 33 32 31 31 30 29 28 28 28 27 27 27 27 26 25 25 25 25 24 24 24 24 23 23 23 23 24 24 25
47 46 46 46 45 44 43 43 41 40 39 38 37 36 35 34 33 32 32 31 30 30 29 29 29 29 29 28 28 27 27 27 27 26 26 26 26 26 26 26 27 27 28
47 46 47 48 47 46 45 44 44 42 41 40 39 38 37 36 34 34 33 32 32 32 31 31 31 31 30 30 30 30 29 29 29 28 28 28 28 28 29 29 30 30 30
47 47 47 48 48 47 46 46 45 44 42 42 41 40 39 37 36 35 35 34 34 33 32 32 33 33 33 32 32 31 31 30 31 31 31 30 30 30 31 31 32 32 33
49 48 48 49 50 49 48 47 46 45 44 44 43 42 40 40 38 37 37 37 36 34 34 33 33 33 34 34 33 33 33 33 33 33 32 32 32 32 33 33 34 34 35
50 50 50 50 51 51 50 48 48 48 47 46 44 43 42 42 41 39 39 38 38 37 36 35 34 33 34 34 34 33 34 34 34 34 34 34 34 34 35 36 36 36 36
52 51 51 50 51 52 52 51 49 49 48 47 46 45 44 43 43 42 41 40 39 38 37 36 35 35 35 35 34 34 35 35 35 36 36 36 36 36 37 37 38 38 38
53 53 53 52 52 53 53 53 52 51 50 49 47 46 46 45 44 43 43 42 41 39 38 37 37 36 36 35 35 36 36 36 36 36 36 37 38 38 39 39 39 39 39
54 53 54 54 53 54 54 54 54 52 51 50 50 48 47 46 46 45 45 44 43 42 41 39 38 38 38 38 37 36 37 37 37 37 38 38 38 39 39 39 39 40 40
54 54 54 54 54 55 55 55 56 54 53 52 52 50 49 48 47 47 46 45 44 43 42 41 40 39 39 39 38 38 38 38 38 39 39 39 39 39 39 40 41 41 42
55 55 55 54 54 55 56 56 56 56 56 55 52 51 50 49 49 48 47 46 45 44 44 43 42 41 40 40 41 41 40 40 39 39 39 40 40 41 41 41 42 43 44
56 56 55 56 56 55 55 56 56 55 55 55 53 51 50 49 50 49 48 47 47 46 45 45 44 43 42 43 42 42 42 42 41 41 41 41 41 42 42 43 44 44 45
57 57 56 56 57 57 56 56 56 55 54 54 53 51 50 50 50 49 48 47 47 47 46 46 45 44 43 43 42 42 42 42 41 42 42 42 43 44 44 45 45 45 46
57 58 57 57 57 58 58 57 57 56 55 55 54 53 52 51 51 50 49 49 48 47 47 46 46 45 44 43 43 42 42 42 42 43 44 44 45 46 46 46 46 46 47
56 57 58 57 57 57 58 57 56 56 57 56 55 54 54 53 52 51 50 50 50 49 48 47 47 46 45 44 44 44 44 44 44 44 45 45 46 47 47 47 47 47 47
55 56 57 57 57 57 57 57 57 57 56 56 56 55 55 54 53 52 51 51 51 50 49 48 48 47 47 47 46 46 46 46 45 45 46 46 46 46 47 47 47 48 48
52 54 55 55 56 57 58 58 58 58 56 55 56 56 55 55 54 54 54 53 52 51 50 49 49 48 48 48 47 47 47 47 47 46 47 46 46 46 46 47 47 48 48
51 53 54 54 55 55 55 56 56 56 55 55 55 55 55 55 54 54 54 53 52 51 51 51 51 50 49 48 48 48 48 48 48 48 47 47 47 48 47 47 48 49 49
Wind_Direction
233 233 233 233 233 234 235 236 238 239 240 242 243 244 246 247 250 252 253 253 253 255 255 258 261 265 266 269 273 277 280 284 287 291 294 298 302 305 306 306 307 307 308
234 233 233 233 233 233 235 236 237 239 240 241 243 244 246 246 248 251 252 253 253 255 255 257 261 264 265 267 271 275 278 281 285 289 291 293 298 301 302 303 305 304 305
234 234 234 233 233 233 234 236 237 239 240 241 242 243 246 246 248 249 251 252 253 254 255 257 260 264 264 266 269 272 276 279 281 284 287 290 293 296 298 300 302 305 306
234 234 233 233 232 233 234 235 237 238 239 240 241 243 245 246 246 248 250 251 253 254 255 257 260 262 265 265 267 270 273 276 278 281 284 286 288 291 295 298 300 304 306
234 234 233 233 233 233 234 235 236 239 239 240 241 243 245 246 246 248 250 251 254 255 255 257 259 262 264 265 266 268 271 273 276 278 281 284 285 287 291 296 299 301 304
234 233 233 232 233 234 234 235 237 239 240 240 242 243 244 245 246 247 249 251 254 254 254 255 259 262 264 265 266 267 269 271 274 276 279 281 283 285 288 293 296 298 300
235 233 233 232 232 233 234 235 237 239 240 241 242 243 244 246 246 247 248 250 253 254 255 256 259 262 264 265 266 267 268 270 273 275 276 277 279 282 285 290 293 296 298
235 234 233 233 233 234 235 236 237 239 241 242 243 245 246 247 247 248 249 251 254 255 256 257 260 263 265 265 266 267 267 269 271 274 275 276 277 280 283 287 291 293 296
235 234 233 233 234 234 235 236 237 238 240 243 243 245 246 247 249 249 250 251 254 254 256 258 261 262 264 265 265 266 267 268 270 272 273 274 276 279 281 284 287 290 293
234 235 233 233 234 235 236 236 238 238 240 242 243 244 246 248 250 250 250 252 254 255 257 259 261 262 263 265 265 265 267 267 268 269 271 273 275 277 280 282 285 288 291
234 234 233 233 234 235 236 237 237 239 241 242 244 244 246 248 249 250 251 252 253 256 258 259 260 262 264 265 265 266 266 266 268 269 271 273 275 277 279 282 285 288 290
236 235 235 234 234 235 236 237 238 238 240 242 243 244 246 248 250 250 251 250 252 254 257 259 260 262 263 264 264 265 265 266 267 269 270 273 275 277 279 282 285 287 289
237 236 235 236 236 235 236 237 239 239 240 242 244 244 245 247 249 250 251 251 252 254 256 259 261 262 262 263 264 264 265 266 267 270 271 273 275 277 280 282 284 286 288
237 238 237 236 236 236 236 237 238 239 240 241 243 243 244 246 248 250 251 252 253 255 256 259 259 261 262 262 263 264 266 267 268 271 272 274 276 278 280 282 283 285 287
238 239 239 238 237 237 237 237 239 240 240 241 242 242 244 246 248 249 251 253 254 255 256 258 259 260 261 262 262 264 265 267 269 272 273 275 276 278 280 282 283 284 286
239 240 240 239 239 238 238 238 239 240 241 241 242 243 244 246 247 248 250 252 253 254 256 257 258 259 260 262 263 264 265 267 270 271 273 275 276 278 280 282 283 284 286
239 239 240 240 239 239 239 239 238 240 241 241 242 243 244 245 247 248 249 251 252 254 256 256 257 259 260 261 262 265 266 267 270 272 273 275 276 278 280 281 283 284 286
239 240 241 241 241 240 240 240 239 240 241 242 242 243 245 246 247 248 249 251 253 253 254 255 257 259 260 261 263 266 267 269 270 272 273 274 276 278 279 281 283 284 286
240 241 241 241 241 241 241 241 241 242 242 242 243 244 246 247 247 248 249 250 252 253 253 255 257 259 260 261 264 266 267 269 271 272 273 274 276 277 279 280 283 284 286
241 241 241 241 241 240 240 241 241 241 242 242 243 244 245 247 247 248 249 250 251 252 254 255 256 258 260 262 264 266 267 270 271 272 273 275 276 278 279 281 283 284 286
242 241 242 242 241 241 240 241 240 241 242 243 243 244 245 246 247 248 248 249 251 253 254 255 257 258 260 262 264 267 268 270 271 273 274 275 277 278 280 281 283 284 286
242 242 242 242 242 241 241 242 242 242 243 244 244 244 245 245 246 247 249 251 252 253 255 256 257 258 260 262 264 266 268 270 271 273 275 276 277 278 280 282 283 284 285
243 243 242 242 242 241 241 242 242 243 243 244 245 246 246 246 247 249 250 252 253 254 255 256 256 258 260 262 264 267 268 270 271 273 275 276 277 279 280 282 283 284 285
242 242 241 241 241 241 241 242 242 243 244 246 247 247 247 247 248 249 250 251 253 254 255 255 257 259 261 263 265 266 268 269 271 273 275 276 277 279 280 281 282 283 284
242 242 242 241 241 240 240 242 243 243 245 246 246 246 247 247 247 248 250 251 253 254 254 255 258 259 261 264 265 266 268 270 271 273 274 276 277 278 280 281 282 283 283
241 241 241 239 239 239 240 242 244 243 244 245 245 246 246 246 247 248 249 250 252 253 254 256 258 260 261 263 265 267 269 270 272 273 274 276 277 278 279 281 282 283 283
Height
5816 5819 5822 5824 5827 5829 5831 5833 5835 5836 5838 5839 5840 5841 5842 5843 5844 5844 5845 5846 5846 5847 5847 5847 5847 5847 5847 5846 5846 5845 5845 5844 5844 5843 5842 5841 5839 5838 5837 5836 5834 5833 5831
5809 5812 5815 5818 5821 5823 5825 5828 5830 5831 5833 5835 5836 5837 5838 5839 5840 5841 5841 5842 5843 5843 5843 5844 5843 5843 5843 5843 5843 5842 5842 5841 5841 5840 5839 5838 5837 5836 5834 5833 5832 5830 5829
5801 5804 5808 5811 5814 5817 5820 5822 5824 5826 5828 5830 5831 5832 5834 5835 5835 5836 5837 5838 5839 5839 5840 5840 5840 5840 5839 5839 5839 5839 5839 5838 5838 5837 5836 5835 5834 5833 5832 5830 5829 5828 5826
5793 5797 5800 5804 5807 5810 5813 5816 5818 5821 5823 5825 5826 5828 5829 5830 5831 5832 5833 5833 5834 5835 5835 5836 5836 5836 5836 5836 5835 5835 5835 5835 5834 5833 5833 5832 5831 5830 5829 5827 5826 5825 5823
5785 5789 5792 5796 5800 5803 5807 5810 5812 5815 5817 5819 5821 5823 5824 5825 5826 5827 5828 5829 5830 5830 5831 5831 5831 5831 5831 5831 5831 5831 5831 5831 5830 5830 5829 5828 5827 5826 5825 5824 5823 5821 5820
5776 5780 5784 5788 5792 5796 5799 5803 5806 5808 5811 5813 5815 5817 5818 5819 5821 5822 5823 5824 5825 5825 5826 5826 5826 5827 5827 5827 5827 5827 5827 5827 5826 5825 5825 5824 5823 5823 5822 5821 5819 5818 5816
5767 5772 5776 5779 5784 5788 5792 5795 5798 5801 5804 5806 5808 5810 5812 5813 5815 5816 5817 5818 5819 5820 5821 5821 5822 5822 5822 5822 5822 5822 5822 5822 5822 5821 5820 5820 5819 5818 5818 5817 5815 5814 5812
5758 5762 5766 5771 5775 5779 5783 5787 5790 5793 5796 5799 5802 5804 5805 5808 5809 5810 5811 5812 5813 5814 5815 5816 5816 5817 5817 5817 5817 5817 5817 5817 5817 5816 5816 5815 5814 5814 5813 5812 5811 5809 5808
5748 5753 5757 5762 5766 5771 5775 5778 5782 5785 5788 5791 5794 5797 5799 5801 5802 5804 5805 5806 5807 5808 5809 5810 5810 5811 5811 5811 5811 5811 5811 5811 5811 5811 5810 5810 5809 5809 5808 5807 5805 5804 5802
5738 5743 5747 5752 5757 5761 5766 5769 5773 5777 5780 5783 5786 5789 5791 5793 5795 5797 5798 5799 5800 5801 5802 5803 5804 5804 5804 5805 5805 5805 5805 5805 5805 5804 5804 5804 5803 5803 5802 5801 5800 5798 5797
5728 5733 5737 5742 5747 5751 5756 5760 5764 5768 5771 5774 5777 5780 5782 5785 5787 5789 5791 5792 5793 5794 5795 5796 5796 5797 5797 5797 5798 5798 5798 5798 5798 5798 5798 5797 5797 5796 5795 5794 5793 5792 5790
5717 5722 5727 5732 5736 5741 5746 5750 5754 5758 5762 5765 5768 5771 5773 5776 5778 5780 5782 5783 5785 5786 5787 5788 5788 5789 5789 5790 5790 5790 5791 5791 5791 5791 5791 5790 5790 5789 5788 5787 5786 5784 5783
5706 5711 5716 5721 5726 5731 5735 5740 5744 5748 5751 5755 5758 5761 5764 5766 5769 5771 5773 5774 5776 5777 5778 5779 5780 5780 5781 5781 5782 5782 5783 5783 5783 5783 5783 5783 5782 5781 5780 5779 5778 5776 5775
5695 5699 5704 5709 5714 5719 5724 5729 5733 5737 5741 5744 5748 5750 5753 5756 5759 5762 5764 5765 5767 5768 5769 5771 5771 5772 5772 5773 5773 5774 5774 5774 5775 5775 5775 5774 5774 5773 5772 5771 5769 5768 5766
5683 5688 5692 5697 5702 5707 5712 5717 5722 5726 5729 5733 5737 5740 5743 5746 5749 5752 5754 5756 5758 5759 5761 5762 5763 5763 5763 5764 5764 5765 5765 5766 5766 5766 5766 5765 5765 5764 5763 5761 5760 5758 5756
5671 5676 5681 5685 5690 5694 5699 5705 5710 5714 5718 5722 5726 5729 5733 5736 5739 5741 5744 5746 5748 5750 5751 5753 5754 5754 5755 5755 5755 5756 5756 5756 5757 5757 5756 5756 5755 5754 5753 5752 5750 5748 5747
5659 5663 5669 5673 5678 5682 5687 5692 5697 5702 5706 5710 5714 5718 5722 5725 5728 5731 5733 5735 5737 5739 5741 5743 5744 5745 5745 5746 5746 5746 5747 5747 5747 5747 5747 5746 5745 5744 5743 5742 5740 5738 5736
5646 5651 5656 5661 5665 5670 5675 5680 5685 5690 5694 5699 5703 5707 5710 5714 5717 5720 5723 5725 5727 5729 5731 5733 5734 5735 5736 5736 5736 5737 5737 5737 5737 5737 5736 5736 5735 5734 5733 5731 5730 5728 5726
5633 5638 5643 5648 5653 5658 5663 5668 5673 5677 5682 5687 5691 5695 5699 5702 5706 5709 5711 5714 5716 5718 5720 5722 5724 5725 5725 5726 5726 5726 5727 5727 5727 5726 5726 5725 5724 5723 5722 5721 5719 5717 5715
5620 5625 5630 5635 5640 5645 5650 5655 5660 5664 5669 5674 5678 5683 5687 5690 5694 5697 5700 5703 5705 5707 5709 5711 5713 5714 5715 5715 5715 5716 5716 5716 5716 5716 5715 5714 5713 5712 5711 5710 5708 5706 5703
5606 5611 5616 5622 5627 5632 5637 5642 5647 5652 5657 5661 5666 5670 5674 5678 5681 5685 5688 5691 5693 5696 5698 5700 5702 5703 5704 5705 5705 5705 5706 5706 5705 5705 5704 5704 5702 5701 5699 5697 5695 5693 5691
5592 5597 5603 5608 5613 5619 5624 5629 5634 5639 5644 5649 5653 5658 5662 5666 5669 5673 5676 5679 5682 5684 5687 5689 5691 5692 5693 5694 5694 5695 5695 5695 5695 5695 5693 5692 5691 5689 5687 5686 5683 5681 5678
5578 5583 5588 5594 5600 5606 5611 5616 5620 5626 5631 5635 5640 5644 5649 5653 5656 5660 5663 5666 5669 5672 5675 5677 5679 5680 5682 5683 5684 5684 5683 5683 5683 5682 5681 5680 5679 5677 5675 5673 5670 5668 5666
5564 5569 5574 5580 5586 5592 5597 5602 5607 5612 5617 5622 5627 5631 5635 5639 5643 5647 5651 5654 5657 5660 5663 5665 5667 5669 5670 5670 5671 5672 5671 5671 5671 5670 5669 5668 5667 5665 5663 5660 5658 5655 5653
5550 5555 5560 5566 5572 5577 5583 5588 5593 5598 5604 5609 5613 5617 5622 5626 5631 5634 5637 5641 5644 5647 5649 5652 5654 5656 5657 5658 5658 5659 5659 5659 5659 5658 5657 5656 5654 5652 5651 5648 5645 5643 5640
5536 5541 5546 5552 5557 5563 5569 5575 5579 5584 5590 5595 5599 5604 5608 5613 5616 5619 5623 5627 5631 5634 5637 5639 5641 5643 5644 5645 5646 5646 5646 5646 5646 5646 5645 5643 5641 5639 5638 5636 5633 5630 5627